Lexington Weather

Lexington, Massachusetts, USA

29°F
3/6/2021 6:32pm 
  • Lexington Conditions: Partly cloudy
  • Temperature: 29.1°F / -1.6°CColder 1.8°F than last hour.
  • Dew Point: 12.7°FDecreased 0.4°Fsince last hour.
  • Relative Humidity: 50%Increased 3.0% since last hour.
  • Wind: Wind from WNW WNW Calm, 10-min avg: 2 mph, gust: 11 mph
  • Barometer: 30.02 inRising 0.04  inHg/hr Rising Slowly
  • Visibility: 10 miles
  • Snow Today: 0.0 in
  •   

Regional Weather Roundup
for Boston / Norton, MA

        
000
ASUS41 KBOX 011604
RWRBOX

REGIONAL WEATHER ROUNDUP
NATIONAL WEATHER SERVICE BOSTON/NORTON MA
1100 AM EST MON MAR 01 2021

NOTE:  "FAIR" INDICATES FEW OR NO CLOUDS BELOW 12,000 FEET WITH NO 
SIGNIFICANT WEATHER AND/OR OBSTRUCTIONS TO VISIBILITY.

MAZALL-011700-
EASTERN MASSACHUSETTS
  
CITY           SKY/WX    TMP DP  RH WIND       PRES   REMARKS
BOSTON         CLOUDY    41  40  96 W8        29.50F                  
BEVERLY        CLOUDY    42  40  92 W7        29.49F FOG              
LAWRENCE       CLOUDY    40  39  97 W8        29.52F                  
BEDFORD        CLOUDY    39  37  92 W8        29.50F FOG              
BLUE HILL        N/A     39  39 100 W13       29.47F WCI  31          
NORWOOD        CLOUDY    42  39  89 W7        29.50F                  
MARSHFIELD     CLOUDY    50  50 100 VRB5G12   29.47F                  
PLYMOUTH       CLOUDY    50  48  93 SW9       29.47F                  
TAUNTON        CLOUDY    50  47  89 W8        29.48F                  
NEW BEDFORD    CLOUDY    52  50  93 SW7       29.49F                  
$$

MAZALL-011700-
CAPE COD AND THE ISLANDS
  
CITY           SKY/WX    TMP DP  RH WIND       PRES   REMARKS
FALMOUTH       CLOUDY    48  48 100 SW12      29.49F                  
HYANNIS        CLOUDY    50  48  93 SW8       29.48F FOG              
CHATHAM        LGT RAIN  46  45  96 SW7       29.50F                  
PROVINCETOWN   FOG       45  45 100 SW10      29.49F VSB 3/4          
NANTUCKET      LGT RAIN  46  46 100 W12       29.51F FOG              
MARTHAS VNYRD  LGT RAIN  50  49  96 W10       29.50F                  
$$
 
MAZALL-011700-
CENTRAL AND WESTERN MASSACHUSETTS
  
CITY           SKY/WX    TMP DP  RH WIND       PRES   REMARKS
WORCESTER      FOG       40  38  93 W17G25    29.50F VSB 1   WCI  31  
FITCHBURG      CLOUDY    41  40  96 NW6       29.51F                  
ORANGE         LGT RAIN  36  36 100 CALM      29.54F FOG              
SPRINGFIELD    LGT RAIN  38  38 100 CALM      29.54F FOG              
WESTFIELD      LGT RAIN  37  37 100 CALM      29.55F VSB 1            
NORTH ADAMS    LGT RAIN  41  40  96 W9        29.59R FOG              
PITTSFIELD     LGT RAIN  39  37  92 W18G24    29.56R WCI  30          
$$
 
RIZALL-011700-
RHODE ISLAND
  
CITY           SKY/WX    TMP DP  RH WIND       PRES   REMARKS
PROVIDENCE     CLOUDY    50  47  89 W9        29.50F                  
NEWPORT        CLOUDY    47  47 100 VRB3      29.49F                  
BLOCK ISLAND   FOG       43  43 100 W14       29.53F VSB 3/4          
SMITHFIELD     PTSUNNY   45  45 100 W8        29.51F                  
WESTERLY       CLOUDY    42  42 100 W8        29.54S                  
$$
 
CTZALL-011700-
CONNECTICUT
  
CITY           SKY/WX    TMP DP  RH WIND       PRES   REMARKS
BRADLEY INTL   FOG       38  36  92 CALM      29.56F VSB 1/2          
HARTFORD       CLOUDY    40  37  89 CALM      29.58S FOG              
BRIDGEPORT     FOG       41  40  96 SW10      29.59S VSB 1            
DANBURY        CLOUDY    41  38  89 W6        29.58F                  
GROTON         CLOUDY    45  43  93 W6        29.54S FOG              
NEW HAVEN      FOG       43  41  93 SW5       29.57S VSB 1/2          
CHESTER        CLOUDY    45  45 100 W7G14     29.55R                  
MERIDEN        CLOUDY    40  38  93 CALM      29.57F                  
WILLIMANTIC    CLOUDY    43  42  97 W8        29.55R                  
OXFORD         FOG       39  39 100 VRB7      29.57R VSB 1/4          
$$

MEZ002-015-021-024-NHZ003-005-008-011-012-014-VTZ005-008-011700-
NORTHERN NEW ENGLAND
  
CITY           SKY/WX    TMP DP  RH WIND       PRES   REMARKS
PORTLAND ME    FOG       41  41 100 W6        29.47F VSB 3/4          
BANGOR ME      LGT RAIN  39  38  96 SE7       29.49F FOG              
CONCORD NH     LGT RAIN  36  35  96 NW8       29.52F FOG     WCI  30  
MANCHESTER NH  CLOUDY    39  36  89 NW7       29.50F                  
NASHUA NH      CLOUDY    39  39 100 NW6       29.52F                  
PORTSMOUTH NH  CLOUDY    41  41  99 W7        29.47F FOG              
JAFFREY NH     LGT RAIN  39  38  96 VRB6      29.50F                  
KEENE NH       LGT RAIN  38  38 100 CALM      29.54F                  
BURLINGTON VT  LGT RAIN  39  35  86 SW6       29.53F                  
MT. WASHINGTON SNOWSHWR  25  25 100 W58         N/A  VSB 0   WCI   3  
$$

NYZ052-076-011700-
EASTERN NEW YORK
  
CITY           SKY/WX    TMP DP  RH WIND       PRES   REMARKS
ALBANY         CLOUDY    40  36  86 W20G29    29.62S WCI  30          
NEW YORK CITY  CLOUDY    45  40  82 W8        29.62R                  
$$
 
ANZALL-011700-
MARINE OBSERVATIONS
  
STATION/POSITION TIME  TEMP    WIND        PRES    VSBY  WAVE
                       AIR SEA DIR/SP/G                  HT/PER
                 (UTC) (F)     (DEG/KT/KT) (MB)    (MI)  (FT/S)
BOSTON BUOY      1540   39 38  290/  8/ 12  999.1F
BUZZARDS BAY     1500          240/ 14/ 15 1001.5F
NANTUCKET SOUND  1540      37  230/  6/  8   N/A
MASS BAY-STELLWA 1504   41     240/  6/  8  998.0F   5/16  5/ 6
ISLE OF SHOALS   1500   41     260/  7/  7  999.2F
S OF BLOCK IS    1526      40                N/A           6/ 8
$$

......................KEY.........................
  SKY/WX - SKY CONDITION/PRESENT WEATHER
  TMP    - TEMPERATURE IN FAHRENHEIT
  DWPT   - DEWPOINT IN FAHRENHEIT
  RH     - RELATIVE HUMIDITY IN PERCENT
  WIND   - DIRECTION AND SPEED IN MPH
  PRES   - MEAN SEA LEVEL PRESSURE IN INCHES OF HG
  WCI    - WIND CHILL INDEX
  VSB    - VISIBILITY IN MILES
  HX     - HEAT INDEX
  TC     - TEMPERATURE IN CELSIUS
  VRB    - VARIABLE WIND DIRECTION
  N/A    - NOT AVAILABLE
  
      

Other recent Regional Weather Roundups

Sat Mar 6, 6:04pm

Sat Mar 6, 5:04pm

Sat Mar 6, 4:05pm

Sat Mar 6, 3:04pm

Sat Mar 6, 2:04pm

Sat Mar 6, 1:05pm

Sat Mar 6, 12:04pm

Sat Mar 6, 11:04am

Sat Mar 6, 10:04am

Sat Mar 6, 9:04am

Sat Mar 6, 8:04am

Sat Mar 6, 7:04am

Sat Mar 6, 6:04am

Sat Mar 6, 5:04am

Sat Mar 6, 4:04am

Sat Mar 6, 3:04am

Sat Mar 6, 2:04am

Sat Mar 6, 1:04am

Sat Mar 6, 12:04am

Fri Mar 5, 11:04pm

Fri Mar 5, 10:04pm

Fri Mar 5, 9:04pm

Fri Mar 5, 8:04pm

Fri Mar 5, 7:04pm

Fri Mar 5, 6:04pm

Fri Mar 5, 5:04pm

Fri Mar 5, 4:05pm

Fri Mar 5, 3:04pm

Fri Mar 5, 2:04pm

Fri Mar 5, 1:04pm

Fri Mar 5, 12:04pm

Fri Mar 5, 11:04am

Fri Mar 5, 10:04am

Fri Mar 5, 9:04am

Fri Mar 5, 8:04am

Fri Mar 5, 7:04am

Fri Mar 5, 6:04am

Fri Mar 5, 5:04am

Fri Mar 5, 4:04am

Fri Mar 5, 3:04am

Fri Mar 5, 2:04am

Fri Mar 5, 1:04am

Fri Mar 5, 12:04am

Thu Mar 4, 11:04pm

Thu Mar 4, 10:04pm

Thu Mar 4, 9:04pm

Thu Mar 4, 8:04pm

Thu Mar 4, 7:04pm

Thu Mar 4, 6:04pm

Thu Mar 4, 5:04pm

Thu Mar 4, 4:04pm

Thu Mar 4, 3:04pm

Thu Mar 4, 2:04pm

Thu Mar 4, 1:04pm

Thu Mar 4, 12:04pm

Thu Mar 4, 11:04am

Thu Mar 4, 10:04am

Thu Mar 4, 9:04am

Thu Mar 4, 8:04am

Thu Mar 4, 7:04am

Thu Mar 4, 6:04am

Thu Mar 4, 5:04am

Thu Mar 4, 4:04am

Thu Mar 4, 3:04am

Thu Mar 4, 2:04am

Thu Mar 4, 1:04am

Thu Mar 4, 12:04am

Wed Mar 3, 11:04pm

Wed Mar 3, 10:04pm

Wed Mar 3, 9:04pm

Wed Mar 3, 8:04pm

Wed Mar 3, 7:04pm

Wed Mar 3, 6:04pm

Wed Mar 3, 5:04pm

Wed Mar 3, 4:04pm

Wed Mar 3, 3:04pm

Wed Mar 3, 2:04pm

Wed Mar 3, 1:04pm

Wed Mar 3, 12:04pm

Wed Mar 3, 11:04am

Wed Mar 3, 10:04am

Wed Mar 3, 9:04am

Wed Mar 3, 8:04am

Wed Mar 3, 7:04am

Wed Mar 3, 6:05am

Wed Mar 3, 5:04am

Wed Mar 3, 4:04am

Wed Mar 3, 3:04am

Wed Mar 3, 2:04am

Wed Mar 3, 1:04am

Wed Mar 3, 12:04am

Tue Mar 2, 11:04pm

Tue Mar 2, 10:05pm

Tue Mar 2, 9:04pm

Tue Mar 2, 8:04pm

Tue Mar 2, 7:04pm

Tue Mar 2, 6:04pm

Tue Mar 2, 5:04pm

Tue Mar 2, 4:05pm

Tue Mar 2, 3:04pm

Tue Mar 2, 2:04pm

Tue Mar 2, 1:04pm

Tue Mar 2, 12:04pm

Tue Mar 2, 11:04am

Tue Mar 2, 10:05am

Tue Mar 2, 9:04am

Tue Mar 2, 8:04am

Tue Mar 2, 7:04am

Tue Mar 2, 6:05am

Tue Mar 2, 5:04am

Tue Mar 2, 4:04am

Tue Mar 2, 3:04am

Tue Mar 2, 2:04am

Tue Mar 2, 1:04am

Tue Mar 2, 12:04am

Mon Mar 1, 11:04pm

Mon Mar 1, 10:04pm

Mon Mar 1, 9:04pm

Mon Mar 1, 8:04pm

Mon Mar 1, 7:04pm

Mon Mar 1, 6:04pm

Mon Mar 1, 5:04pm

Mon Mar 1, 4:05pm

Mon Mar 1, 3:05pm

Mon Mar 1, 2:04pm

Mon Mar 1, 1:04pm

Mon Mar 1, 12:04pm

Mon Mar 1, 10:04am

Mon Mar 1, 9:04am

Mon Mar 1, 8:05am

Mon Mar 1, 7:04am

Mon Mar 1, 6:04am

Mon Mar 1, 5:04am

Mon Mar 1, 4:05am

Mon Mar 1, 3:04am

Mon Mar 1, 2:04am

Mon Mar 1, 1:04am

Mon Mar 1, 12:05am

Sun Feb 28, 11:04pm

Sun Feb 28, 10:04pm

Sun Feb 28, 9:04pm

Sun Feb 28, 8:04pm

Sun Feb 28, 7:04pm

Sun Feb 28, 6:05pm

Sun Feb 28, 5:04pm

Sun Feb 28, 4:05pm

Sun Feb 28, 3:04pm

Sun Feb 28, 2:04pm

Sun Feb 28, 1:04pm

Sun Feb 28, 12:04pm

Sun Feb 28, 11:04am

Sun Feb 28, 10:04am

Sun Feb 28, 9:04am

Sun Feb 28, 8:04am

Sun Feb 28, 7:04am

Sun Feb 28, 6:04am

Sun Feb 28, 5:04am

Sun Feb 28, 4:04am

Sun Feb 28, 3:04am

Sun Feb 28, 2:04am

Sun Feb 28, 1:04am

Sun Feb 28, 12:04am

Sat Feb 27, 11:04pm

Sat Feb 27, 10:04pm

Sat Feb 27, 9:04pm

Sat Feb 27, 8:04pm

Sat Feb 27, 7:04pm

Meta data:

ID: f8666f86-00bc-404a-9378-9159d711340e
Link: https://api.weather.gov/products/f8666f86-00bc-404a-9378-9159d711340e